Hourly Data Report for September 10, 2016

SHEARWATER RCS
NOVA SCOTIA

44°37'47.000" N
63°30'48.000" W
24.00 m
8205092
71264
AAW

Download Data

Hourly Data (September 2016)
Hourly Data Report for September 10, 2016
TIME Temp Definition
°C
Dew Point Definition
°C
Rel Hum Definition
%
Wind Dir Definition
10's deg

Wind Spd Definition
km/h
Visibility Definition
km
Stn Press Definition
kPa
Hmdx Definition


Wind Chill Definition


Weather Definition


00:00 21.3 19.6 90 33 10   100.97 29   LegendNANA
01:00 20.0 18.4 91 32 8   101.03 26   LegendNANA
02:00 18.9 17.5 92 32 3   101.05     LegendNANA
03:00 18.4 17.0 92   0   101.10     LegendNANA
04:00 17.2 16.1 93 26 2   101.16     LegendNANA
05:00 17.2 16.2 94 32 8   101.21     LegendNANA
06:00 17.2 15.9 92 33 8   101.29     LegendNANA
07:00 17.7 15.7 88 32 5   101.34     LegendNANA
08:00 20.1 14.7 71 35 10   101.39     LegendNANA
09:00 22.0 13.5 59 35 8   101.47 25   LegendNANA
10:00 23.6 13.1 52 34 5   101.52 26   LegendNANA
11:00 24.3 12.9 49 4 4   101.55 27   LegendNANA
12:00 25.6 11.3 41 30 9   101.59 28   LegendNANA
13:00 23.3 14.6 58 16 16   101.60 27   LegendNANA
14:00 23.3 14.7 58 16 17   101.58 27   LegendNANA
15:00 22.7 15.5 64 16 17   101.61 27   LegendNANA
16:00 22.5 14.2 60 16 15   101.66 26   LegendNANA
17:00 21.8 15.7 68 16 13   101.71 26   LegendNANA
18:00 20.9 15.1 69 15 6   101.73 25   LegendNANA
19:00 18.6 14.7 78 13 3   101.75     LegendNANA
20:00 17.7 15.6 87 13 4   101.79     LegendNANA
21:00 18.2 16.6 90 12 3   101.80     LegendNANA
22:00 17.9 16.6 92 9 7   101.78     LegendNANA
23:00 18.9 17.8 93 12 8   101.72     LegendNANA

Notes on Data Quality.

Legend

  • E = Estimated
  • M = Missing
  • NA = Not Available*
  • [empty] = Indicates an unobserved value
Date modified: